Location: Chmeln�
(49.6483°N, 14.9871°E)
Time: 15:03:49
(UTC+00:00)

CENTAUR R/B - Pass Details

Date: 18 September 2020
Orbit: 755 x 1433 km, 63.4° (Epoch: 02 October)

Event Time Altitude Azimuth Distance (km) Brightness Sun altitude
Rises 21:15:03 0° 313° (NW) 4,222 6.8 -34.7°
Reaches altitude 10° 21:18:15 10° 302° (WNW) 3,339 5.9 -34.9°
Maximum altitude 21:24:47 27° 249° (WSW) 2,419 4.5 -35.5°
Enters shadow 21:25:43 26° 239° (WSW) 2,455 4.5 -35.5°
